Regional Weather Roundup
Issued by NWS

Home | Current Version | Previous Version | Graphics & Text | Print | Product List | Glossary On
Versions: 1 2 3 4 5 6 7 8 9 10 11 12 13 14 15 16 17 18 19 20 21 22 23 24 25 26 27 28 29 30 31 32 33 34 35 36 37 38 39 40 41 42 43 44 45 46 47 48 49 50
000
ASUS45 KBOU 021307
RWRCO

WEATHER ROUNDUP FOR COLORADO
NATIONAL WEATHER SERVICE DENVER/BOULDER CO
700 AM MDT WED SEP 02 2015

NOTE: "FAIR" INDICATES FEW OR NO CLOUDS BELOW 12000 FEET WITH NO
SIGNIFICANT WEATHER AND/OR OBSTRUCTIONS TO VISIBILITY.

COZ001>005-013-030-031-021400-
...NORTHWEST COLORADO...

CITY           SKY/WX    TMP DP  RH WIND       PRES   REMARKS
CRAIG          CLEAR     42  39  89 SW3       30.24R
HAYDEN         NOT AVBL
MEEKER         CLEAR     46  43  89 CALM      30.25R
MOUNT WERNER   NOT AVBL
STEAMBOAT SPGS CLEAR     44  40  86 CALM      30.29R
WALDEN         CLEAR     37  34  87 SE3       30.35R
$$

COZ006>008-011-021400-
...WEST CENTRAL VALLEYS...

CITY           SKY/WX    TMP DP  RH WIND       PRES   REMARKS
GRAND JUNCTION CLEAR     59  50  72 SE8       30.15R
MONTROSE       CLEAR     54  47  77 S8        30.24R
EAGLE          PTCLDY    45  45 100 CALM      30.35R
RIFLE          CLEAR     51  48  89 E3        30.24R
DELTA          NOT AVBL
NUCLA          CLEAR     57  45  62 SE3       30.26R
$$

COZ017>023-064>068-021400-
...SOUTHWEST COLORADO...

CITY           SKY/WX    TMP DP  RH WIND       PRES   REMARKS
DURANGO        PTCLDY    51  43  74 CALM      30.29R
CORTEZ         CLEAR     51  46  83 CALM      30.23R
PAGOSA SPRINGS PTCLDY    51  44  78 CALM      30.36R
TELLURIDE      PTCLDY    50  44  80 SE6       30.46R
WOLF CREEK PAS NOT AVBL
$$

COZ009-010-012-014-032>034-037-058>063-021400-
...CENTRAL COLORADO...

CITY           SKY/WX    TMP DP  RH WIND       PRES   REMARKS
ASPEN          CLEAR     45  42  89 SW8       30.36R
BUENA VISTA    NOT AVBL
COPPER MTN     CLEAR     46  32  57 W12G20    30.61R
BERTHOUD PASS  FAIR      37  27  65 NW30      30.61R
COTTONWOOD PAS PTCLDY    52  39  62 NW6       30.47R
GUNNISON       PTCLDY    43  39  87 CALM      30.42R
KREMMLING      CLEAR     41  37  87 CALM      30.38R
LEADVILLE      CLEAR     35  35 100 N5        30.47R WCI  31
MONARCH PASS   CLEAR     41  36  81 W21       30.70R
SALIDA         PTCLDY    50  44  79 NW3       30.43R
SUNLIGHT       PTCLDY    46  39  76 CALM      30.55S
WILKERSON PASS PTCLDY    45  36  70 W14G24    30.56R
$$

COZ069>075-021400-
...SAN LUIS VALLEY/SANGRE DE CRISTO MOUNTAINS...

CITY           SKY/WX    TMP DP  RH WIND       PRES   REMARKS
ALAMOSA        PTCLDY    45  42  89 W6        30.35R
LA VETA PASS   MOCLDY    50  39  66 S16G23    30.49R
SAGUACHE       NOT AVBL
$$

COZ035-036-038>040-021400-
...NORTHERN COLORADO FRONT RANGE...

CITY           SKY/WX    TMP DP  RH WIND       PRES   REMARKS
DENVER INTL AP MOCLDY    63  44  50 SW9       30.10R
DMNS CITY PARK   N/A     64  46  50 SE7       30.10S
AURORA         PTCLDY    63  44  48 SW7       30.12R
FRONT RANGE AP NOT AVBL
ERIE MUNI ARPT CLEAR     53  49  83 CALM      30.08R
BOULDER MUN AP CLEAR     63  45  51 CALM      30.09R
CENTENNIAL     PTCLDY    66  42  41 SW14      30.13R
BROOMFIELD     PTCLDY    66  41  39 W6        30.12R
FORT COLLINS   CLEAR     59  45  58 CALM      30.08R
LONGMONT       CLEAR     56  47  70 CALM      30.10R
$$

COZ041-046-047-076>085-087-088-021400-
...PIKES PEAK/PALMER DIVIDE AND SOUTHERN FOOTHILLS...

CITY           SKY/WX    TMP DP  RH WIND       PRES   REMARKS
COLO. SPRINGS  MOCLDY    66  41  40 NW9       30.17R
A. F. ACADEMY  PTCLDY    63  42  45 NE6       30.20R
ELLICOTT       PTCLDY   N/A N/A N/A CALM      30.15R
FALCON         PTCLDY    66  37  33 MISG      30.22R
FORT CARSON    PTCLDY    60  47  62 NW5       30.14R
LIMON          CLEAR     54  48  80 N7        30.10R
MONUMENT HILL  CLEAR     57  39  51 SW8       30.23R
TRINIDAD       CLEAR     61  47  59 W6        30.17R
$$

COZ042>045-048>051-090-091-021400-
...NORTHEAST COLORADO...

CITY           SKY/WX    TMP DP  RH WIND       PRES   REMARKS
GREELEY ARPT   PTCLDY    54  46  76 CALM      30.07R
AKRON          PTCLDY    64  48  56 W9        30.04R
BURLINGTON     CLEAR     62  55  77 W7        30.02R
WRAY           CLOUDY    59  53  78 W5        29.98R
STERLING       NOT AVBL
HOLYOKE        CLEAR     61  52  72 W7        29.97S
FORT MORGAN    NOT AVBL
$$

COZ086-089-092>099-021400-
...SOUTHEAST COLORADO...

CITY           SKY/WX    TMP DP  RH WIND       PRES   REMARKS
PUEBLO         MOCLDY    66  48  52 SW7       30.07R
LA JUNTA       CLEAR     63  49  60 SW7       30.05R
LAMAR          CLEAR     61  53  75 SW7       30.00R
SPRINGFIELD      N/A     68  50  52 W10       30.06R
$$




USA.gov is the U.S. government's official web portal to all federal, state and local government web resources and services.